Ionia, MI

11:30 PM EST on November 13, 2019 (GMT -0500)
Ionia

Weather History for KY70 - September, 2019

Change the Weather History Date:

Friday, September 27, 2019

  Actual Average (KGRR) Record (KGRR)
Temperature  
Mean Temperature 60 °F -  
Max Temperature 71 °F 67 °F 86 °F (1946)
Min Temperature 50 °F 45 °F 29 °F (1989)
Degree Days  
Heating Degree Days 4    
Growing Degree Days 10 (Base 50)    
Moisture  
Dew Point 50 °F    
Average Humidity 72    
Maximum Humidity 94    
Minimum Humidity 39    
Precipitation  
Precipitation 0.77 in - - ()
Sea Level Pressure  
Sea Level Pressure 29.86 in    
Wind  
Wind Speed 7 mph ()    
Max Wind Speed 17 mph    
Max Gust Speed 25 mph    
Visibility 9.6 miles    
Events Rain    
Averages and records for this station are not official NWS values.
T = Trace of Precipitation, MM = Missing Value Source: Averaged Metar Reports

Daily Weather History Graph

Daily Weather History Graph

Search for Another Location

Airport or City:

Astronomy

Sep. 27, 2019 Rise Set
Actual Time 7:32 AM EDT 7:28 PM EDT
Civil Twilight 7:04 AM EDT 7:57 PM EDT
Nautical Twilight 6:31 AM EDT 8:30 PM EDT
Astronomical Twilight 5:57 AM EDT 9:03 PM EDT
Moon 5:48 AM EDT (9/27) 7:22 PM EDT (9/27)
Length of Visible Light 12h 52m
Length of Day
11h 56m
Waning Crescent, 2% of the Moon is Illuminated
Sep 27
Waning Crescent
Sep 28
New
Oct 5
First Quarter
Oct 13
Full
Oct 21
Last Quarter

Hourly Weather History & Observations

Time (EDT) Temp. Dew Point Humidity Pressure Visibility Wind Dir Wind Speed Gust Speed Precip Events Conditions
12:15 AM 52.9 °F 44.1 °F 72% 29.95 in 10.0 mi South 5.8 mph - N/A   Clear
12:35 AM 51.6 °F 43.9 °F 75% 29.94 in 10.0 mi South 4.6 mph - N/A   Clear
12:36 AM 51.4 °F 43.9 °F 75% 29.94 in 10.0 mi South 4.6 mph - N/A   Clear
12:55 AM 51.1 °F 43.9 °F 76% 29.94 in 10.0 mi South 5.8 mph - N/A   Clear
12:59 AM 51.3 °F 43.9 °F 76% 29.94 in 10.0 mi South 5.8 mph - N/A   Clear
1:17 AM 51.1 °F 43.9 °F 76% 29.93 in 10.0 mi SSE 5.8 mph - N/A   Clear
1:35 AM 50.7 °F 43.7 °F 77% 29.93 in 10.0 mi SSE 4.6 mph - N/A   Clear
1:55 AM 51.1 °F 43.7 °F 76% 29.92 in 10.0 mi SSE 8.1 mph - N/A   Clear
1:56 AM 51.1 °F 43.7 °F 76% 29.92 in 10.0 mi SSE 8.1 mph - N/A   Clear
2:15 AM 53.1 °F 43.7 °F 71% 29.92 in 10.0 mi South 6.9 mph - N/A   Scattered Clouds
2:38 AM 54.7 °F 43.7 °F 66% 29.93 in 10.0 mi South 5.8 mph - N/A   Overcast
2:56 AM 53.8 °F 44.8 °F 72% 29.92 in 10.0 mi South 5.8 mph - N/A   Overcast
3:15 AM 55.8 °F 43.9 °F 64% 29.92 in 10.0 mi South 6.9 mph - N/A   Overcast
3:16 AM 55.8 °F 43.9 °F 64% 29.92 in 10.0 mi South 6.9 mph - N/A   Overcast
3:35 AM 56.3 °F 43.5 °F 62% 29.93 in 10.0 mi South 6.9 mph - N/A   Overcast
3:36 AM 56.3 °F 43.7 °F 63% 29.93 in 10.0 mi South 6.9 mph - N/A   Overcast
3:59 AM 56.7 °F 43.5 °F 61% 29.93 in 10.0 mi South 6.9 mph - N/A   Overcast
4:17 AM 57.2 °F 42.8 °F 59% 29.92 in 10.0 mi South 6.9 mph - N/A   Overcast
4:37 AM 57.2 °F 43.0 °F 59% 29.93 in 10.0 mi South 8.1 mph - N/A   Overcast
4:55 AM 56.8 °F 42.8 °F 59% 29.92 in 10.0 mi South 6.9 mph - N/A   Overcast
4:56 AM 56.8 °F 42.8 °F 59% 29.92 in 10.0 mi South 6.9 mph - N/A   Overcast
5:15 AM 57.2 °F 42.8 °F 59% 29.92 in 10.0 mi SSE 4.6 mph - N/A   Overcast
5:16 AM 57.2 °F 42.8 °F 59% 29.92 in 10.0 mi South 5.8 mph - N/A   Overcast
5:35 AM 55.9 °F 45.1 °F 67% 29.92 in 10.0 mi SSE 3.5 mph - N/A   Overcast
5:58 AM 55.0 °F 46.8 °F 74% 29.92 in 10.0 mi SSE 3.5 mph - N/A   Overcast
6:15 AM 55.2 °F 46.4 °F 72% 29.92 in 10.0 mi SSE 3.5 mph - N/A   Overcast
6:35 AM 56.7 °F 43.9 °F 62% 29.92 in 10.0 mi South 5.8 mph - N/A   Overcast
6:36 AM 56.7 °F 43.9 °F 62% 29.92 in 10.0 mi South 5.8 mph - N/A   Overcast
6:55 AM 56.5 °F 44.1 °F 63% 29.91 in 10.0 mi SSE 8.1 mph - N/A   Overcast
6:56 AM 56.5 °F 43.9 °F 63% 29.92 in 10.0 mi SSE 8.1 mph - N/A   Overcast
7:19 AM 57.2 °F 43.7 °F 61% 29.93 in 10.0 mi South 5.8 mph - N/A   Overcast
7:37 AM 57.4 °F 43.0 °F 59% 29.94 in 10.0 mi South 5.8 mph - N/A   Overcast
7:55 AM 58.1 °F 42.1 °F 55% 29.94 in 10.0 mi South 8.1 mph - N/A   Overcast
7:56 AM 58.3 °F 42.1 °F 55% 29.94 in 10.0 mi South 8.1 mph - N/A   Overcast
8:15 AM 58.3 °F 41.9 °F 54% 29.93 in 10.0 mi SSE 10.4 mph - N/A   Overcast
8:35 AM 59.0 °F 41.9 °F 53% 29.94 in 10.0 mi South 9.2 mph 16.1 mph N/A   Drizzle
8:58 AM 57.2 °F 45.3 °F 65% 29.93 in 10.0 mi SSE 6.9 mph - N/A Rain Light Rain
9:16 AM 57.2 °F 44.6 °F 63% 29.92 in 10.0 mi SSE 9.2 mph - N/A   Overcast
9:35 AM 58.1 °F 44.1 °F 60% 29.91 in 10.0 mi SSE 10.4 mph - N/A   Overcast
9:36 AM 58.1 °F 44.1 °F 60% 29.91 in 10.0 mi SSE 11.5 mph - N/A   Overcast
9:55 AM 58.8 °F 43.9 °F 58% 29.90 in 10.0 mi SSE 10.4 mph - N/A   Overcast
9:56 AM 58.8 °F 43.9 °F 58% 29.90 in 10.0 mi SSE 9.2 mph - N/A   Overcast
10:19 AM 60.8 °F 43.5 °F 53% 29.89 in 10.0 mi SSE 12.7 mph 16.1 mph N/A   Overcast
10:37 AM 61.2 °F 43.3 °F 52% 29.88 in 10.0 mi SSE 11.5 mph 16.1 mph N/A   Overcast
10:55 AM 61.3 °F 45.7 °F 56% 29.85 in 10.0 mi SSE 10.4 mph 18.4 mph N/A   Overcast
11:15 AM 64.6 °F 44.2 °F 48% 29.84 in 10.0 mi SSE 16.1 mph - N/A   Overcast
11:35 AM 65.8 °F 43.3 °F 44% 29.85 in 10.0 mi South 15.0 mph 19.6 mph N/A   Overcast
1:37 PM 71.2 °F 44.8 °F 39% 29.83 in 10.0 mi South 13.8 mph 17.3 mph N/A   Overcast
1:55 PM 70.9 °F 45.0 °F 39% 29.81 in 10.0 mi South 13.8 mph 20.7 mph N/A   Overcast
2:15 PM 64.4 °F 53.6 °F 68% 29.80 in 10.0 mi South 10.4 mph - 0.01 in   Overcast
2:16 PM 64.6 °F 53.6 °F 68% 29.80 in 10.0 mi South 10.4 mph - 0.01 in   Overcast
2:35 PM 66.0 °F 52.3 °F 61% 29.81 in 10.0 mi South 17.3 mph 21.9 mph 0.01 in   Overcast
2:40 PM 66.4 °F 51.3 °F 58% 29.81 in 10.0 mi South 17.3 mph 25.3 mph 0.01 in   Overcast
3:11 PM 62.6 °F 57.2 °F 82% 29.80 in 5.0 mi SSW 16.1 mph 24.2 mph 0.03 in Rain Rain
3:31 PM 60.8 °F 57.2 °F 88% 29.75 in 7.0 mi SSE 16.1 mph - 0.07 in Rain Rain
3:52 PM 62.6 °F 59.0 °F 88% 29.76 in 10.0 mi South 17.3 mph 21.9 mph 0.07 in   Scattered Clouds
4:11 PM 62.6 °F 59.0 °F 88% 29.76 in 10.0 mi South 13.8 mph - N/A   Clear
4:31 PM 62.6 °F 59.0 °F 88% 29.77 in 10.0 mi SW 11.5 mph 16.1 mph N/A   Clear
4:51 PM 64.4 °F 60.8 °F 88% 29.77 in 10.0 mi SSW 6.9 mph - N/A   Scattered Clouds
5:11 PM 64.4 °F 60.8 °F 88% 29.76 in 10.0 mi SSW 6.9 mph - N/A   Mostly Cloudy
5:31 PM 64.4 °F 60.8 °F 88% 29.76 in 10.0 mi SSW 5.8 mph - N/A   Overcast
5:51 PM 64.4 °F 60.8 °F 88% 29.74 in 10.0 mi South 5.8 mph - N/A   Mostly Cloudy
6:11 PM 64.4 °F 60.8 °F 88% 29.74 in 10.0 mi South 9.2 mph - N/A   Scattered Clouds
6:31 PM 64.4 °F 60.8 °F 88% 29.74 in 10.0 mi SSW 8.1 mph - N/A   Clear
6:51 PM 66.2 °F 62.6 °F 88% 29.74 in 10.0 mi SW 6.9 mph - 0.01 in Rain Light Rain
7:11 PM 64.4 °F 62.6 °F 94% 29.73 in 10.0 mi SW 4.6 mph - N/A   Mostly Cloudy
7:32 PM 66.2 °F 62.6 °F 88% 29.75 in 10.0 mi SW 8.1 mph - N/A Rain Light Rain
7:51 PM 66.2 °F 62.6 °F 88% 29.77 in 7.0 mi SW 12.7 mph - 0.01 in Rain Rain
8:11 PM 66.2 °F 64.4 °F 94% 29.76 in 10.0 mi SSW 9.2 mph - 0.01 in Rain Light Rain
8:32 PM 66.2 °F 64.4 °F 94% 29.77 in 10.0 mi SSW 5.8 mph - 0.01 in   Overcast
8:51 PM 66.2 °F 64.4 °F 94% 29.76 in 10.0 mi South 6.9 mph - 0.01 in   Overcast
9:11 PM 66.2 °F 64.4 °F 94% 29.75 in 5.0 mi South 17.3 mph 21.9 mph 0.08 in Rain Heavy Rain
9:31 PM 66.2 °F 64.4 °F 94% 29.76 in 2.5 mi SSW 9.2 mph - 0.49 in Rain Heavy Rain
9:51 PM 66.2 °F 64.4 °F 94% 29.75 in 5.0 mi South 4.6 mph - 0.60 in Rain Heavy Rain
10:13 PM 66.2 °F 64.4 °F 94% 29.76 in 10.0 mi Calm Calm - 0.01 in Rain Light Rain
10:31 PM 66.2 °F 64.4 °F 94% 29.74 in 10.0 mi Calm Calm - 0.01 in   Light Drizzle
10:51 PM 66.2 °F 64.4 °F 94% 29.73 in 10.0 mi ESE 4.6 mph - 0.01 in   Overcast
11:11 PM 66.2 °F 64.4 °F 94% 29.76 in 10.0 mi Calm Calm - N/A Rain Light Rain
11:31 PM 66.2 °F 64.4 °F 94% 29.80 in 10.0 mi West 4.6 mph - 0.02 in Rain Light Rain
11:51 PM 66.2 °F 64.4 °F 94% 29.82 in 10.0 mi SW 4.6 mph - 0.05 in Rain Heavy Rain